Change the Weather History Date:

Saturday, December 10, 2011

  Actual Average Record
Temperature  
Mean Temperature 75 °F 74 °F  
Max Temperature 78 °F 79 °F 85 °F (1995)
Min Temperature 71 °F 68 °F 56 °F (1972)
Degree Days  
Heating Degree Days 0 0  
Month to date heating degree days 0 0  
Since 1 July heating degree days 0 0  
Cooling Degree Days 10 9  
Month to date cooling degree days 60 90  
Year to date cooling degree days 3948 3781  
Growing Degree Days 22 (Base 50)    
Moisture  
Dew Point 65 °F    
Average Humidity 72    
Maximum Humidity 79    
Minimum Humidity 64    
Precipitation  
Precipitation 0.03 in 0.17 in 0.81 in (2010)
Month to date precipitation 0.39 1.61  
Year to date precipitation 39.93 33.46  
Snow  
Snow 0.00 in - - ()
Month to date snowfall 0.0  
Since 1 July snowfall 0.0  
Snow Depth 0.00 in    
Sea Level Pressure  
Sea Level Pressure 30.08 in    
Wind  
Wind Speed 20 mph (NE)    
Max Wind Speed 28 mph    
Max Gust Speed 33 mph    
Visibility 10 miles    
Events Rain    
T = Trace of Precipitation, MM = Missing Value Source: NWS Daily Summary

Daily Weather History Graph

Daily Weather History Graph

Search for Another Location

Airport or City:

Trip Planner

Search our weather history database for the weather conditions in past years. The results will help you decide how hot, cold, wet, or windy it might be!

Date:

Astronomy

Dec. 10, 2011 Rise Set
Actual Time 7:05 AM HST 5:54 PM HST
Civil Twilight 6:41 AM HST 6:19 PM HST
Nautical Twilight 6:13 AM HST 6:46 PM HST
Astronomical Twilight 5:46 AM HST 7:14 PM HST
Moon 6:20 PM HST (12/10) 7:13 AM HST (12/10)
Length of Visible Light 11h 38m
Length of Day
10h 49m
Full, 100% of the Moon is Illuminated
Dec 10
Full
Dec 17
Last Quarter
Dec 24
New
Dec 31
First Quarter
Jan 8
Full

Hourly Weather History & Observations

Time (HST) Temp. Dew Point Humidity Pressure Visibility Wind Dir Wind Speed Gust Speed Precip Events Conditions
12:53 AM 73.0 °F 62.1 °F 68% 30.10 in 10.0 mi NE 18.4 mph 27.6 mph N/A   Partly Cloudy
1:53 AM 72.0 °F 64.0 °F 76% 30.10 in 10.0 mi NE 16.1 mph - N/A   Scattered Clouds
2:53 AM 73.0 °F 61.0 °F 66% 30.09 in 10.0 mi NE 17.3 mph - N/A   Mostly Cloudy
3:53 AM 73.0 °F 63.0 °F 71% 30.09 in 10.0 mi NE 17.3 mph - N/A   Overcast
4:53 AM 72.0 °F 63.0 °F 73% 30.08 in 10.0 mi NE 19.6 mph - N/A   Partly Cloudy
5:53 AM 73.0 °F 63.0 °F 71% 30.07 in 10.0 mi NE 18.4 mph - N/A   Partly Cloudy
6:53 AM 72.0 °F 63.0 °F 73% 30.07 in 10.0 mi NNE 19.6 mph - 0.00 in   Mostly Cloudy
7:53 AM 73.0 °F 63.0 °F 71% 30.09 in 10.0 mi NE 18.4 mph - N/A   Partly Cloudy
8:53 AM 75.0 °F 63.0 °F 66% 30.11 in 10.0 mi NNE 18.4 mph - N/A   Scattered Clouds
9:53 AM 75.0 °F 63.0 °F 66% 30.12 in 10.0 mi NE 19.6 mph 27.6 mph N/A   Mostly Cloudy
10:53 AM 73.9 °F 66.0 °F 76% 30.11 in 10.0 mi NNE 27.6 mph 33.4 mph 0.00 in   Scattered Clouds
11:53 AM 73.0 °F 66.9 °F 81% 30.08 in 10.0 mi NNE 18.4 mph - 0.02 in   Mostly Cloudy
12:53 PM 75.9 °F 64.0 °F 67% 30.06 in 10.0 mi NE 21.9 mph - N/A   Partly Cloudy
1:53 PM 75.9 °F 68.0 °F 76% 30.03 in 9.0 mi NNE 17.3 mph - 0.00 in Rain Light Rain
2:53 PM 73.9 °F 66.9 °F 79% 30.03 in 8.0 mi NE 24.2 mph 28.8 mph 0.01 in   Mostly Cloudy
3:53 PM 72.0 °F 66.0 °F 81% 30.04 in 10.0 mi NNE 20.7 mph - 0.00 in   Mostly Cloudy
4:53 PM 72.0 °F 66.9 °F 84% 30.05 in 10.0 mi NNE 19.6 mph - N/A   Overcast
5:53 PM 72.0 °F 66.0 °F 81% 30.06 in 10.0 mi ENE 20.7 mph - 0.00 in   Mostly Cloudy
6:45 PM 71.6 °F 66.2 °F 83% 30.10 in 10.0 mi ENE 24.2 mph 33.4 mph N/A   Mostly Cloudy
6:53 PM 71.1 °F 64.0 °F 78% 30.09 in 10.0 mi ENE 25.3 mph 34.5 mph N/A   Overcast
7:04 PM 69.8 °F 64.4 °F 83% 30.10 in 10.0 mi ENE 21.9 mph 28.8 mph N/A   Mostly Cloudy
7:53 PM 71.1 °F 66.0 °F 84% 30.07 in 10.0 mi NNE 16.1 mph - N/A   Partly Cloudy
8:53 PM 72.0 °F 66.9 °F 84% 30.10 in 9.0 mi NE 23.0 mph 28.8 mph 0.00 in   Scattered Clouds
9:00 PM 71.6 °F 68.0 °F 88% 30.10 in 9.0 mi NE 20.7 mph - N/A   Overcast
9:22 PM 73.4 °F 68.0 °F 83% 30.11 in 9.0 mi NE 26.5 mph 34.5 mph N/A   Overcast
9:53 PM 73.0 °F 66.0 °F 79% 30.11 in 10.0 mi NE 21.9 mph - N/A   Mostly Cloudy
10:53 PM 72.0 °F 68.0 °F 87% 30.10 in 6.0 mi ENE 16.1 mph - 0.02 in Rain Light Rain
11:06 PM 71.6 °F 66.2 °F 83% 30.10 in 10.0 mi ENE 24.2 mph 34.5 mph 0.00 in Rain Light Rain
11:53 PM 72.5 °F 66.9 °F 83% 30.09 in 10.0 mi NE 23.0 mph 31.1 mph 0.00 in Rain Light Rain